Location: Brachbach
(49.1847°N, 9.7240°E)
Time: 09:39:07
(UTC+00:00)

FENGYUN 3A - Pass Details

Date: 15 August 2024
Orbit: 821 x 834 km, 98.6° (Epoch: 16 September)

Event Time Altitude Azimuth Distance (km) Brightness Sun altitude
Rises 23:56:16 0° 33° (NNE) 3,393 7.9 -26.5°
Reaches altitude 10° 00:01:03 10° 71° (ENE) 2,447 6.4 -26.4°
Maximum altitude 00:02:12 11° 83° (E) 2,400 6.2 -26.3°
Drops below altitude 10° 00:03:21 10° 96° (E) 2,442 6.1 -26.3°
Enters shadow 00:04:43 - 109° (ESE) 2,602 6.1 -26.3°
